Weather in San Rafael

Argentina     34°36′45″S   68°20′25″W
temp.,
°C
wind,
m/s
gust,
m/s
humid.,
%
clouds,
%
prec.,
mm/h
press.,
hPa
HPBL,
m
23 april, fri
fri2300:00+14s22693 0.0 101328
03:00+14ssw227088 0.0 101224
06:00+13wsw22735 0.0 101216
09:00+14ssw11694 0.0 101317
12:00+18se33545 0.0 1014809
15:00+20sse34463 0.0 10121177
18:00+20sse45450 0.0 10131138
21:00+17ese33590 0.0 101640
24 april, sat
sat2400:00+16s22630 0.0 101821
03:00+14sse11680 0.0 101912
06:00+13nnw11710 0.0 101811
09:00+15sse006855 0.0 102115
12:00+19ene22495 0.0 1021919
15:00+21ne33390 0.0 10191606
18:00+21ene33380 0.0 10181654
21:00+17ene45507 0.0 102081
25 april, sun
sun2500:00+16ne33550 0.0 102148
03:00+14nw00630 0.0 102122
06:00+13n01650 0.0 102016
09:00+15n11610 0.0 102018
12:00+19ne33430 0.0 1019880
15:00+21ne44380 0.0 10161549
18:00+21ne44390 0.0 10151541
21:00+18ene34470 0.0 101754
26 april, mon
mon2600:00+15ne11540 0.0 101716
03:00+14nnw11590 0.0 101713
06:00+14nw22570 0.0 101616
09:00+15nnw34600 0.0 101766
12:00+21n45460 0.0 1016837
15:00+23nne55390 0.0 10141367
18:00+22nne56400 0.0 1014792
21:00+19nne46510 0.0 101691
27 april, tue
tue2700:00+17n510560 0.0 1016172
03:00+16nnw46580 0.0 101684
06:00+15nw46600 0.0 101571
09:00+16nnw58610 0.0 1016146
12:00+22n77420 0.0 1015898
15:00+24n78360 0.0 10131187
18:00+23nne68370 0.0 1012517
21:00+19n59470 0.0 1014140